Main page
METAR-TAF:

METAR-TAF

Airports :

Maringá Regional Airport

Maringá, Paraná, Brazil

latitude: 23-25S, longitude: 051-57W, elevation: 542 m

Current weather observation

The report was made 39 minutes ago, at 07:00 UTC
Wind 7 kt from the East/Southeast
Temperature 20°C
Humidity 73%
Pressure 1013 hPa
Visibility 10 km or more
no clouds below 1500 m and no cumulonimbus

METAR: SBMG 190700Z 11007KT CAVOK 20/15 Q1013

Time: 04:39 (07:39 UTC)


TAF: missing

Weather observations and forecasts of more than 4000 airports (METAR and TAF reports).

The available stations are represented by yellow and red dots on the map.

Hover mouse over dot to see the name of the station.

Then click to see weather observations and forecasts.

To change the map : click on the green buttons with a black cross to zoom in, on the green button with a dash to zoom out, or on the green arrows for adjacent maps.


METAR-TAF: